Погода в Кученяеве

Россия / Республика Мордовия     54°43′46″N   46°22′54″E
темп.,
°C
ветер,
м/с
пор.,
м/с
влажн.,
%
обл.,
%
осадки,
мм/ч
давл.,
гПа
погр.,
м
15 августа, пн
пн1500:00+16вюв225467 0.0 102212
03:00+14в116097 0.0 102310
06:00+16в226072 0.0 102464
09:00+22в2444100 0.0 1024537
12:00+25всв344259 0.0 10241550
15:00+27всв444290 0.0 10232243
18:00+24в355611 0.0 1023196
21:00+19всв117270 0.0 102311
16 августа, вт
вт1600:00+19всв22747 0.0 102416
03:00+15в11840 0.0 102411
06:00+17всв22760 0.0 102571
09:00+23в35480 0.0 1025767
12:00+26вюв55375 0.0 10241775
15:00+27вюв55355 0.0 10231844
18:00+24вюв354736 0.0 1023154
21:00+18в226841 0.0 102419
17 августа, ср
ср1700:00+16в227216 0.0 102420
03:00+15в22775 0.0 102318
06:00+16в27685 0.0 1023178
09:00+23в56424 0.0 1023749
12:00+26в66310 0.0 10221421
15:00+26вюв67290 0.0 10211684
18:00+24в354331 0.0 1021124
21:00+17всв3106754 0.0 1021158
18 августа, чт
чт1800:00+16всв347286 0.0 102150
03:00+15всв357748 0.0 102176
06:00+16всв3117075 0.0 1022271
09:00+23в694327 0.0 1021635
12:00+27в783280 0.0 10211231
15:00+27вюв673158 0.0 10211579
18:00+25в4841100 0.0 1021300
21:00+19всв41361100 0.0 1022301
19 августа, пт
пт1900:00+19в41262100 0.0 1023328
03:00+17в3971100 0.0 1024214
06:00+18вюв31068100 0.0 1026308
09:00+23вюв6945100 0.0 1026772
12:00+26вюв7836100 0.0 10261450
15:00+26вюв6737100 0.0 10261606
18:00+23вюв3645100 0.0 1026223
21:00+18в3967100 0.0 1027150